K7FED Weather Reports


Display with metric or nautical units.
time (UTC)temp
F
wind
direction
speed
MPH
gust
MPH
rain 1hr
in
rain 24hr
in
rain mn
in
humidity
%
barometer
mb
20260901222633 76 319 3.0 8.0 0.00 0.00 0.00 43 1013.6
20260901222134 75 344 3.0 8.0 0.00 0.00 0.00 43 1013.7
20260901221633 75 186 4.0 10.0 0.00 0.00 0.00 44 1013.8
20260901221130 75 15 3.0 10.0 0.00 0.00 0.00 45 1013.8
20260901220634 75 2 2.0 7.0 0.00 0.00 0.00 45 1013.9
20260901220131 74 139 2.0 8.0 0.00 0.00 0.00 45 1014.0
20260901215633 75 340 2.0 8.0 0.00 0.00 0.00 44 1014.0
20260901215135 75 320 1.0 4.0 0.00 0.00 0.00 44 1014.0
20260901214631 74 305 2.0 9.0 0.00 0.00 0.00 43 1014.0
20260901214131 74 216 3.0 9.0 0.00 0.00 0.00 44 1013.9
20260901213632 75 337 2.0 8.0 0.00 0.00 0.00 44 1013.9
20260901213134 75 7 2.0 8.0 0.00 0.00 0.00 44 1013.9
20260901212631 75 312 2.0 8.0 0.00 0.00 0.00 44 1014.0
20260901212132 75 204 2.0 6.0 0.00 0.00 0.00 44 1013.9
20260901211132 75 199 2.0 5.0 0.00 0.00 0.00 42 1013.9
20260901210131 75 161 1.0 5.0 0.00 0.00 0.00 42 1014.0
20260901205631 75 0 1.0 5.0 0.00 0.00 0.00 42 1014.0
20260901205129 74 248 1.0 5.0 0.00 0.00 0.00 42 1014.1
20260901204626 74 252 2.0 7.0 0.00 0.00 0.00 44 1014.1
20260901204126 73 303 2.0 7.0 0.00 0.00 0.00 43 1014.2
20260901203626 73 322 3.0 7.0 0.00 0.00 0.00 45 1014.2
20260901203126 74 316 3.0 7.0 0.00 0.00 0.00 44 1014.3
20260901202625 74 325 2.0 7.0 0.00 0.00 0.00 43 1014.3
20260901202129 74 330 2.0 5.0 0.00 0.00 0.00 42 1014.4
20260901201626 73 0 2.0 5.0 0.00 0.00 0.00 46 1014.5
20260901201124 74 89 2.0 8.0 0.00 0.00 0.00 44 1014.4
20260901200623 74 341 2.0 8.0 0.00 0.00 0.00 43 1014.5
20260901200123 74 162 2.0 6.0 0.00 0.00 0.00 45 1014.5
20260901195124 73 296 2.0 6.0 0.00 0.00 0.00 45 1014.6
20260901193621 74 172 2.0 7.0 0.00 0.00 0.00 45 1014.7
20260901193122 74 322 3.0 7.0 0.00 0.00 0.00 44 1014.8
20260901192622 73 349 2.0 7.0 0.00 0.00 0.00 46 1014.8
20260901192122 73 307 2.0 5.0 0.00 0.00 0.00 46 1014.9
20260901191622 73 315 1.0 4.0 0.00 0.00 0.00 46 1014.9
20260901191122 72 311 1.0 5.0 0.00 0.00 0.00 45 1015.0
20260901190623 72 334 2.0 5.0 0.00 0.00 0.00 44 1015.0
20260901190124 72 19 3.0 6.0 0.00 0.00 0.00 45 1015.1
20260901185614 72 22 3.0 6.0 0.00 0.00 0.00 45 1015.1
20260901185110 72 177 2.0 4.0 0.00 0.00 0.00 45 1015.1
20260901184555 72 315 2.0 5.0 0.00 0.00 0.00 45 1015.1
20260901184045 72 30 2.0 7.0 0.00 0.00 0.00 45 1015.1
20260901183543 72 315 2.0 7.0 0.00 0.00 0.00 45 1015.1
20260901183042 72 137 3.0 6.0 0.00 0.00 0.00 46 1015.1
20260901182543 72 144 2.0 6.0 0.00 0.00 0.00 45 1015.1
20260901182039 72 0 3.0 9.0 0.00 0.00 0.00 45 1015.1
20260901181524 71 169 3.0 9.0 0.00 0.00 0.00 47 1015.1
20260901181023 71 319 2.0 6.0 0.00 0.00 0.00 47 1015.0
20260901180524 71 324 2.0 6.0 0.00 0.00 0.00 48 1015.1
20260901180024 70 347 2.0 4.0 0.00 0.00 0.00 49 1015.1
20260901175524 70 309 1.0 4.0 0.00 0.00 0.00 49 1015.1
20260901175028 70 0 2.0 4.0 0.00 0.00 0.00 53 1015.1
20260901174528 70 28 2.0 4.0 0.00 0.00 0.00 52 1015.1
20260901173528 70 213 2.0 4.0 0.00 0.00 0.00 53 1015.0
20260901173023 70 194 1.0 3.0 0.00 0.00 0.00 48 1015.0
20260901172523 69 167 1.0 3.0 0.00 0.00 0.00 50 1014.9
20260901172023 69 148 1.0 3.0 0.00 0.00 0.00 50 1014.9
20260901171522 68 329 1.0 6.0 0.00 0.00 0.00 52 1015.0
20260901171023 68 357 2.0 6.0 0.00 0.00 0.00 52 1015.0
20260901170525 67 319 2.0 5.0 0.00 0.00 0.00 52 1015.0
20260901170027 67 326 2.0 4.0 0.00 0.00 0.00 54 1015.0
20260901165524 66 341 2.0 4.0 0.00 0.00 0.00 59 1015.0
20260901165025 66 98 2.0 4.0 0.00 0.00 0.00 61 1015.1
20260901164025 66 94 2.0 3.0 0.00 0.00 0.00 63 1015.0
20260901163523 65 27 3.0 6.0 0.00 0.00 0.00 64 1015.0
20260901163017 65 77 4.0 8.0 0.00 0.00 0.00 63 1015.0
20260901162513 64 116 4.0 8.0 0.00 0.00 0.00 64 1015.0
20260901162016 64 89 3.0 5.0 0.00 0.00 0.00 65 1014.9
20260901161010 64 65 3.0 5.0 0.00 0.00 0.00 66 1014.8
20260901160511 63 102 3.0 5.0 0.00 0.00 0.00 67 1014.8
20260901160010 63 81 3.0 4.0 0.00 0.00 0.00 68 1014.7
20260901155510 63 84 3.0 4.0 0.00 0.00 0.00 68 1014.7
20260901155011 62 114 3.0 5.0 0.00 0.00 0.00 68 1014.6
20260901154511 62 83 3.0 6.0 0.00 0.00 0.00 68 1014.6
20260901154001 62 138 3.0 6.0 0.00 0.00 0.00 68 1014.6
20260901153502 62 133 4.0 6.0 0.00 0.00 0.00 70 1014.6
20260901153005 61 152 4.0 6.0 0.00 0.00 0.00 70 1014.5
20260901152457 61 123 4.0 6.0 0.00 0.00 0.00 71 1014.5
20260901151957 61 122 3.0 6.0 0.00 0.00 0.00 71 1014.5
20260901151457 60 124 3.0 6.0 0.00 0.00 0.00 71 1014.5
20260901150949 60 112 3.0 6.0 0.00 0.00 0.00 71 1014.4
20260901145944 59 115 3.0 5.0 0.00 0.00 0.00 73 1014.3
20260901145441 59 140 3.0 5.0 0.00 0.00 0.00 73 1014.2
20260901144941 58 133 3.0 6.0 0.00 0.00 0.00 74 1014.1
20260901144436 58 69 3.0 6.0 0.00 0.00 0.00 74 1014.1
20260901143932 58 108 3.0 6.0 0.00 0.00 0.00 72 1014.0
20260901143427 58 133 3.0 6.0 0.00 0.00 0.00 70 1014.0
20260901142927 57 127 3.0 5.0 0.00 0.00 0.00 70 1014.0
20260901141927 57 112 2.0 4.0 0.00 0.00 0.00 73 1013.8
20260901141426 57 103 2.0 4.0 0.00 0.00 0.00 74 1013.7
20260901140927 57 118 3.0 5.0 0.00 0.00 0.00 74 1013.6
20260901140428 58 100 3.0 5.0 0.00 0.00 0.00 74 1013.6
20260901135934 58 123 2.0 5.0 0.00 0.00 0.00 73 1013.5
20260901135425 59 128 2.0 4.0 0.00 0.00 0.00 72 1013.4
20260901134928 59 79 2.0 4.0 0.00 0.00 0.00 71 1013.3
20260901134429 59 113 1.0 4.0 0.00 0.00 0.00 70 1013.2
20260901133925 59 82 1.0 3.0 0.00 0.00 0.00 70 1013.2
20260901133425 59 0 0.0 3.0 0.00 0.00 0.00 71 1013.1
20260901132925 58 7 0.0 3.0 0.00 0.00 0.00 71 1013.0
20260901132425 58 2 1.0 3.0 0.00 0.00 0.00 71 1013.0
20260901131925 58 341 1.0 3.0 0.00 0.00 0.00 72 1012.9
20260901131426 58 336 0.0 2.0 0.00 0.00 0.00 74 1013.0
20260901130925 58 32 0.0 2.0 0.00 0.00 0.00 75 1012.9
20260901130425 58 21 0.0 2.0 0.00 0.00 0.00 75 1012.9
20260901125929 58 140 0.0 2.0 0.00 0.00 0.00 73 1012.9
20260901125426 58 0 0.0 2.0 0.00 0.00 0.00 71 1012.9
20260901124925 58 0 0.0 2.0 0.00 0.00 0.00 71 1012.9
20260901124429 59 0 0.0 1.0 0.00 0.00 0.00 70 1012.9
20260901123926 59 0 0.0 1.0 0.00 0.00 0.00 70 1012.8
20260901123424 59 0 0.0 1.0 0.00 0.00 0.00 70 1012.9
20260901122924 59 0 0.0 3.0 0.00 0.00 0.00 70 1012.9
20260901122428 59 0 0.0 3.0 0.00 0.00 0.00 69 1012.7
20260901121925 59 0 0.0 3.0 0.00 0.00 0.00 69 1012.8
20260901121425 59 0 0.0 2.0 0.00 0.00 0.00 69 1012.8
20260901120924 59 0 0.0 2.0 0.00 0.00 0.00 69 1012.8
20260901120425 59 0 0.0 2.0 0.00 0.00 0.00 70 1012.9
20260901115425 59 0 1.0 3.0 0.00 0.00 0.00 70 1012.9
20260901114923 59 327 0.0 3.0 0.00 0.00 0.00 71 1012.9
20260901113923 58 328 0.0 2.0 0.00 0.00 0.00 72 1012.8
20260901113423 58 348 0.0 2.0 0.00 0.00 0.00 73 1012.8
20260901112920 57 0 0.0 2.0 0.00 0.00 0.00 74 1012.7
20260901112420 57 0 0.0 2.0 0.00 0.00 0.00 75 1012.5
20260901111920 57 271 0.0 3.0 0.00 0.00 0.00 77 1012.5
20260901111420 57 0 0.0 3.0 0.00 0.00 0.00 77 1012.4
20260901110920 57 0 0.0 3.0 0.00 0.00 0.00 79 1012.4
20260901110417 57 101 0.0 2.0 0.00 0.00 0.00 79 1012.4
20260901105917 57 23 0.0 2.0 0.00 0.00 0.00 79 1012.5
20260901105417 57 0 1.0 2.0 0.00 0.00 0.00 79 1012.4
20260901104918 57 309 0.0 2.0 0.00 0.00 0.00 80 1012.5
20260901104417 57 0 0.0 2.0 0.00 0.00 0.00 79 1012.5
20260901103920 58 0 0.0 2.0 0.00 0.00 0.00 79 1012.4
20260901103421 58 0 0.0 1.0 0.00 0.00 0.00 77 1012.4
20260901102917 58 0 0.0 1.0 0.00 0.00 0.00 76 1012.4
20260901102417 58 0 0.0 2.0 0.00 0.00 0.00 77 1012.3
20260901101921 59 0 1.0 2.0 0.00 0.00 0.00 77 1012.3
20260901101418 59 94 1.0 3.0 0.00 0.00 0.00 77 1012.2
20260901100921 59 70 2.0 3.0 0.00 0.00 0.00 77 1012.2
20260901100418 59 76 2.0 4.0 0.00 0.00 0.00 77 1012.1
20260901095915 59 64 2.0 4.0 0.00 0.00 0.00 77 1012.1
20260901095415 59 64 1.0 2.0 0.00 0.00 0.00 76 1012.2
20260901094915 59 31 2.0 4.0 0.00 0.00 0.00 77 1012.2
20260901094422 59 62 3.0 4.0 0.00 0.00 0.00 76 1012.1
20260901093915 59 89 3.0 4.0 0.00 0.00 0.00 75 1012.1
20260901093415 60 96 2.0 3.0 0.00 0.00 0.00 73 1012.1
20260901092916 60 103 1.0 3.0 0.00 0.00 0.00 69 1012.0
20260901092416 61 18 1.0 3.0 0.00 0.00 0.00 68 1011.9
20260901091915 61 0 1.0 4.0 0.00 0.00 0.00 67 1011.9
20260901091415 60 124 1.0 4.0 0.00 0.00 0.00 67 1011.8
20260901090919 60 112 1.0 3.0 0.00 0.00 0.00 68 1011.9
20260901090415 60 141 0.0 3.0 0.00 0.00 0.00 69 1011.9
20260901085915 60 356 0.0 3.0 0.00 0.00 0.00 69 1011.9
20260901085415 60 149 0.0 2.0 0.00 0.00 0.00 71 1011.9
20260901084915 61 0 0.0 1.0 0.00 0.00 0.00 69 1012.0
20260901084415 61 0 0.0 2.0 0.00 0.00 0.00 68 1012.1
20260901083919 61 0 0.0 2.0 0.00 0.00 0.00 67 1012.0
20260901083415 61 0 0.0 5.0 0.00 0.00 0.00 68 1012.0
20260901082912 61 133 1.0 5.0 0.00 0.00 0.00 67 1011.9
20260901082412 61 231 1.0 4.0 0.00 0.00 0.00 67 1012.0
20260901081413 61 198 0.0 3.0 0.00 0.00 0.00 69 1012.0
20260901080910 61 202 0.0 2.0 0.00 0.00 0.00 69 1011.9
20260901080410 61 303 0.0 2.0 0.00 0.00 0.00 69 1012.0
20260901075909 61 0 1.0 4.0 0.00 0.00 0.00 69 1011.9
20260901075410 61 311 1.0 4.0 0.00 0.00 0.00 70 1011.9
20260901074910 61 15 1.0 4.0 0.00 0.00 0.00 70 1011.8
20260901074410 61 342 1.0 4.0 0.00 0.00 0.00 69 1011.9
20260901073911 61 348 2.0 6.0 0.00 0.00 0.00 69 1011.9
20260901073414 62 336 2.0 9.0 0.00 0.00 0.00 69 1011.9
20260901072914 62 206 3.0 9.0 0.00 0.00 0.00 70 1011.9
20260901072411 62 353 3.0 7.0 0.00 0.00 0.00 70 1011.7
20260901071911 61 164 3.0 6.0 0.00 0.00 0.00 70 1011.8
20260901071410 61 336 2.0 6.0 0.00 0.00 0.00 71 1011.8
20260901070408 62 336 3.0 8.0 0.00 0.00 0.00 71 1011.7
20260901065908 62 347 3.0 8.0 0.00 0.00 0.00 71 1011.8
20260901065408 62 311 3.0 8.0 0.00 0.00 0.00 71 1011.7
20260901064905 62 303 3.0 8.0 0.00 0.00 0.00 70 1011.8
20260901064406 62 299 3.0 9.0 0.00 0.00 0.00 70 1011.8
20260901063905 62 286 3.0 9.0 0.00 0.00 0.00 70 1011.8
20260901063404 62 292 3.0 9.0 0.00 0.00 0.00 70 1011.8
20260901062905 62 3 3.0 9.0 0.00 0.00 0.00 70 1011.9
20260901062408 62 330 3.0 9.0 0.00 0.00 0.00 70 1011.9
20260901061905 62 213 3.0 9.0 0.00 0.00 0.00 70 1011.8
20260901061405 62 318 3.0 7.0 0.00 0.00 0.00 70 1011.8
20260901060905 62 14 4.0 9.0 0.00 0.00 0.00 70 1011.7
20260901060406 62 314 4.0 9.0 0.00 0.00 0.00 71 1011.7
20260901055912 62 235 4.0 10.0 0.00 0.00 0.00 71 1011.7
20260901054909 62 321 3.0 10.0 0.00 0.00 0.00 70 1011.7
20260901054403 62 327 3.0 10.0 0.00 0.00 0.00 70 1011.6
20260901053903 62 295 3.0 7.0 0.00 0.00 0.00 70 1011.6
20260901053403 62 150 3.0 7.0 0.00 0.00 0.00 70 1011.6
20260901052903 62 324 3.0 9.0 0.00 0.00 0.00 70 1011.6
20260901052403 62 341 3.0 9.0 0.00 0.00 0.00 70 1011.6
20260901051903 62 9 3.0 9.0 0.00 0.00 0.00 70 1011.5
20260901051404 62 354 3.0 9.0 0.00 0.00 0.00 70 1011.4
20260901050904 63 339 3.0 7.0 0.00 0.00 0.00 69 1011.4
20260901050405 63 299 3.0 8.0 0.00 0.00 0.00 69 1011.4
20260901045908 63 329 3.0 8.0 0.00 0.00 0.00 69 1011.4
20260901044905 63 294 4.0 10.0 0.00 0.00 0.00 68 1011.3
20260901044408 63 156 4.0 9.0 0.00 0.00 0.00 68 1011.3
20260901043904 63 175 3.0 9.0 0.00 0.00 0.00 69 1011.3
20260901043405 63 320 4.0 9.0 0.00 0.00 0.00 68 1011.4
20260901042905 63 358 4.0 9.0 0.00 0.00 0.00 68 1011.3
20260901042409 63 5 3.0 9.0 0.00 0.00 0.00 68 1011.2
20260901041406 63 306 2.0 8.0 0.00 0.00 0.00 68 1011.2
20260901040859 64 314 3.0 9.0 0.00 0.00 0.00 68 1011.1
20260901040358 64 326 3.0 9.0 0.00 0.00 0.00 68 1011.1
20260901035901 64 352 3.0 9.0 0.00 0.00 0.00 68 1011.1
20260901035405 64 337 3.0 7.0 0.00 0.00 0.00 67 1011.0
20260901034858 64 339 3.0 7.0 0.00 0.00 0.00 66 1010.9
20260901034358 65 336 3.0 7.0 0.00 0.00 0.00 66 1010.8
20260901033855 65 308 3.0 8.0 0.00 0.00 0.00 65 1010.7
20260901033355 65 344 2.0 8.0 0.00 0.00 0.00 65 1010.6
20260901032855 65 334 2.0 8.0 0.00 0.00 0.00 65 1010.6
20260901032355 65 336 2.0 7.0 0.00 0.00 0.00 64 1010.5
20260901031855 65 282 2.0 7.0 0.00 0.00 0.00 64 1010.4
20260901031359 65 328 2.0 6.0 0.00 0.00 0.00 65 1010.3
20260901030855 65 349 2.0 6.0 0.00 0.00 0.00 64 1010.2
20260901030355 65 311 2.0 8.0 0.00 0.00 0.00 65 1010.2
20260901025856 65 303 3.0 8.0 0.00 0.00 0.00 64 1010.1
20260901025355 66 329 3.0 8.0 0.00 0.00 0.00 64 1010.1
20260901024852 66 339 2.0 6.0 0.00 0.00 0.00 63 1010.1
20260901023850 67 333 2.0 6.0 0.00 0.00 0.00 62 1010.1
20260901023350 68 351 2.0 6.0 0.00 0.00 0.00 61 1010.0
20260901022846 68 299 2.0 8.0 0.00 0.00 0.00 60 1009.9
20260901022347 69 326 2.0 8.0 0.00 0.00 0.00 60 1009.9
20260901021846 69 332 2.0 8.0 0.00 0.00 0.00 60 1009.9
20260901021351 70 355 2.0 6.0 0.00 0.00 0.00 59 1010.0
20260901020847 71 318 2.0 9.0 0.00 0.00 0.00 57 1009.9
20260901020351 71 331 2.0 9.0 0.00 0.00 0.00 56 1009.9
20260901015847 72 292 1.0 5.0 0.00 0.00 0.00 55 1009.8
20260901015351 72 321 1.0 5.0 0.00 0.00 0.00 54 1009.8
20260901014847 73 0 1.0 5.0 0.00 0.00 0.00 54 1009.8
20260901014347 73 314 2.0 6.0 0.00 0.00 0.00 53 1009.8
20260901013848 73 311 2.0 8.0 0.00 0.00 0.00 53 1009.8
20260901013347 74 0 2.0 8.0 0.00 0.00 0.00 52 1009.8
20260901012851 74 284 2.0 6.0 0.00 0.00 0.00 52 1009.8
20260901012347 74 285 2.0 8.0 0.00 0.00 0.00 53 1009.8
20260901011851 74 0 2.0 8.0 0.00 0.00 0.00 52 1009.7
20260901011345 74 305 2.0 9.0 0.00 0.00 0.00 52 1009.6
20260901010842 74 326 3.0 9.0 0.00 0.00 0.00 52 1009.6
20260901010343 75 313 3.0 7.0 0.00 0.00 0.00 51 1009.6
20260901005849 75 313 3.0 9.0 0.00 0.00 0.00 51 1009.5
20260901005346 75 313 3.0 9.0 0.00 0.00 0.00 51 1009.5
20260901004842 75 325 2.0 7.0 0.00 0.00 0.00 51 1009.4
20260901004340 75 312 2.0 6.0 0.00 0.00 0.00 51 1009.4
20260901003841 75 331 2.0 10.0 0.00 0.00 0.00 50 1009.5
20260901003344 76 306 3.0 10.0 0.00 0.00 0.00 50 1009.5
20260901002840 76 299 4.0 9.0 0.00 0.00 0.00 50 1009.5
20260901002341 76 345 4.0 9.0 0.00 0.00 0.00 49 1009.6
20260901001841 76 306 3.0 9.0 0.00 0.00 0.00 49 1009.6
20260901001344 77 167 3.0 9.0 0.00 0.00 0.00 49 1009.6
20260901000841 77 340 3.0 9.0 0.00 0.00 0.00 49 1009.5
20260901000340 77 0 3.0 9.0 0.00 0.00 0.00 49 1009.6
20260831235341 78 326 2.0 7.0 0.00 0.00 0.00 48 1009.5
20260831234836 78 316 2.0 7.0 0.00 0.00 0.00 48 1009.5
20260831234336 78 299 2.0 7.0 0.00 0.00 0.00 48 1009.5
20260831233834 78 311 3.0 8.0 0.00 0.00 0.00 47 1009.6
20260831233334 78 218 3.0 9.0 0.00 0.00 0.00 47 1009.7
20260831231831 78 275 3.0 9.0 0.00 0.00 0.00 47 1009.8
20260831231331 78 314 3.0 9.0 0.00 0.00 0.00 46 1009.8
20260831230831 77 324 3.0 8.0 0.00 0.00 0.00 48 1009.8
20260831230335 77 335 4.0 8.0 0.00 0.00 0.00 48 1009.9
20260831225832 77 316 4.0 9.0 0.00 0.00 0.00 48 1009.9
20260831225334 77 342 4.0 9.0 0.00 0.00 0.00 48 1009.9
20260831224831 77 314 3.0 9.0 0.00 0.00 0.00 48 1010.0
20260831224333 78 324 3.0 9.0 0.00 0.00 0.00 46 1010.0
20260831223835 77 331 3.0 9.0 0.00 0.00 0.00 47 1009.9
20260831223335 77 354 4.0 11.0 0.00 0.00 0.00 49 1010.0